Regional Weather Roundup
Issued by NWS

Home | Current Version | Previous Version | Text Only | Print | Product List | Glossary Off
Versions: 1 2 3 4 5 6 7 8 9 10 11 12 13 14 15 16 17 18 19 20 21 22 23 24 25 26 27

000
ASUS45 KCYS 221810
RWRWY

WYOMING REGIONAL WEATHER ROUNDUP
NATIONAL WEATHER SERVICE CHEYENNE WY
1200 PM MDT SAT JUL 22 2017

NOTE:  "FAIR" INDICATES FEW OR NO CLOUDS BELOW 12,000 FEET
WITH NO SIGNIFICANT WEATHER AND/OR OBSTRUCTIONS TO VISIBILITY.

WYZ001-221900-
YELLOWSTONE NATIONAL PARK

CITY           SKY/WX    TMP DP  RH WIND       PRES   REMARKS
LK YELLOWSTONE   N/A     66  44  45 E3        30.43S
6HR MIN TEMP:  37; 6HR MAX TEMP:  67;

W YELLOWSTONE  NOT AVBL

$$
WYZ002>013-054>058-071-098>099-221900-
NORTHERN WYOMING

CITY           SKY/WX    TMP DP  RH WIND       PRES   REMARKS
JACKSON        SUNNY     72  37  28 SW6       30.32F
CODY           FAIR      77  34  21 VRB6      30.24S
GREYBULL       FAIR      85  35  16 VRB3      30.14F
6HR MIN TEMP:  57; 6HR MAX TEMP:  85;

WORLAND        FAIR      82  33  17 VRB6      30.16F
6HR MIN TEMP:  54; 6HR MAX TEMP:  82;

SHERIDAN       FAIR      81  34  18 CALM      30.17F
6HR MIN TEMP:  53; 6HR MAX TEMP:  82;

BUFFALO        FAIR      81  31  16 NE8       30.23S
6HR MIN TEMP:  64; 6HR MAX TEMP:  82;

GILLETTE       FAIR      85  30  13 N9        30.16F
6HR MIN TEMP:  51; 6HR MAX TEMP:  86;

HULETT         FAIR      81  32  17 N9        30.18R
NEWCASTLE      FAIR      86  34  15 NW6G17    30.14S

$$
WYZ014>020-022>026-101>103-221900-
CENTRAL WYOMING

CITY           SKY/WX    TMP DP  RH WIND       PRES   REMARKS
BIG PINEY      FAIR      76  31  19 VRB3      30.36S
6HR MIN TEMP:  43; 6HR MAX TEMP:  76;

PINEDALE       FAIR      77  28  16 NW9       30.37S
DUBOIS         FAIR      79  23  12 NW12G26   30.33F
LANDER         FAIR      81  31  16 VRB6      30.23F
6HR MIN TEMP:  54; 6HR MAX TEMP:  82;

RIVERTON       FAIR      80  29  15 NE8       30.25S
6HR MIN TEMP:  57; 6HR MAX TEMP:  80;

CASPER         FAIR      82  29  14 MISG      30.22F
6HR MIN TEMP:  58; 6HR MAX TEMP:  84;

DOUGLAS        FAIR      84  45  25 W10       30.18S
6HR MIN TEMP:  58; 6HR MAX TEMP:  86;


$$
WYZ021-027>030-104>119-221900-
SOUTHERN WYOMING

CITY           SKY/WX    TMP DP  RH WIND       PRES   REMARKS
EVANSTON       FAIR      82  32  16 VRB5      30.35S
6HR MIN TEMP:  56; 6HR MAX TEMP:  82;

KEMMERER         N/A     79  23  12 CALM      30.38S
FORT BRIDGER   FAIR      83  29  14 E6        30.38S
ROCK SPRINGS   FAIR      79  33  19 VRB3      30.34S
6HR MIN TEMP:  55; 6HR MAX TEMP:  80;

RAWLINS        FAIR      81  31  16 NW10      30.33F
6HR MIN TEMP:  52; 6HR MAX TEMP:  81;

SARATOGA       FAIR      75  41  29 NW9       30.36S
LARAMIE        FAIR      77  31  18 NW7       30.34F
6HR MIN TEMP:  50; 6HR MAX TEMP:  77;

CHEYENNE       FAIR      82  46  28 VRB7      30.25S
6HR MIN TEMP:  59; 6HR MAX TEMP:  83;

TORRINGTON     FAIR      85  52  32 W7        30.12R
6HR MIN TEMP:  62; 6HR MAX TEMP:  86;

PINE BLUFFS    FAIR      86  46  25 SE15G21   30.19F

$$




USA.gov is the U.S. government's official web portal to all federal, state and local government web resources and services.